This is the latest recevied weather packets stored in our database for station/object WC4PEM-9. If no packets are shown the sender has not sent any weather packets the latest 1 day(s).
| Time | Temp. | Humidity | Pressure | Rain* | Wind** | Luminosity | Snow |
|---|---|---|---|---|---|---|---|
| 1836274761 | 22.22° C | 91% | 1015.9 hPa | 0 mm | 0.45 m/s, 265° | - | - |
| 1836274725 | 21.67° C | 93% | 1015.9 hPa | 0 mm | 0.89 m/s, 341° | - | - |
| 1836274698 | 22.22° C | 91% | 1015.9 hPa | 0 mm | 0.45 m/s, 265° | - | - |
| 1836274575 | 21.11° C | 94% | 1015.7 hPa | 0 mm | 0.89 m/s, 9° | - | - |
| 1836274571 | 22.22° C | 91% | 1015.9 hPa | 0 mm | 0.45 m/s, 265° | - | - |
| 1836274425 | 21.67° C | 93% | 1015.9 hPa | 0 mm | 0.89 m/s, 309° | - | - |
| 1836274275 | 21.67° C | 93% | 1015.6 hPa | 0 mm | 0.89 m/s, 325° | - | - |
| 1836274125 | 21.67° C | 93% | 1015.9 hPa | 0 mm | 0.89 m/s, 323° | - | - |
| 1778042906 | 17.78° C | 88% | 1016.1 hPa | 0 mm | 0.45 m/s, 265° | - | - |
| 1778042835 | 18.33° C | 88% | 1016.4 hPa | 0 mm | 0.45 m/s, 120° | - | - |
| 1778042606 | 18.33° C | 88% | 1016.4 hPa | 0 mm | 0.45 m/s, 120° | - | - |
| 1778042369 | 18.33° C | 88% | 1016.5 hPa | 0 mm | 0.45 m/s, 51° | - | - |
| 1778042306 | 18.33° C | 88% | 1016.4 hPa | 0 mm | 0.45 m/s, 9° | - | - |
| 1778042006 | 18.33° C | 88% | 1016.5 hPa | 0 mm | 0.45 m/s, 51° | - | - |
| 1778041706 | 18.33° C | 88% | 1016.5 hPa | 0 mm | 0.45 m/s, 165° | - | - |
| 1778041559 | 18.33° C | 88% | 1016 hPa | 0 mm | 0.89 m/s, 126° | - | - |
| 1778041406 | 18.33° C | 88% | 1016.4 hPa | 0 mm | 0.45 m/s, 319° | - | - |
| 1778041106 | 18.33° C | 88% | 1016 hPa | 0 mm | 0.89 m/s, 126° | - | - |
| 1778040806 | 18.33° C | 88% | 1016.1 hPa | 0 mm | 0.89 m/s, 144° | - | - |
| 1778040506 | 18.33° C | 87% | 1016.2 hPa | 0 mm | 0.45 m/s, 158° | - | - |
| 1778040206 | 18.33° C | 87% | 1015.9 hPa | 0 mm | 0.45 m/s, 146° | - | - |
| 1778039906 | 18.89° C | 87% | 1016.1 hPa | 0 mm | 0.45 m/s, 137° | - | - |
| 1778039606 | 18.89° C | 86% | 1016.3 hPa | 0 mm | 0.45 m/s, 126° | - | - |
| 1778039306 | 18.89° C | 86% | 1016.4 hPa | 0 mm | 0.45 m/s, 137° | - | - |
| 1778039006 | 18.89° C | 86% | 1016.4 hPa | 0 mm | 0.89 m/s, 9° | - | - |
* Rain latest hour (hover to see other rain measurements)
** Current wind speed in m/s (hover to see current wind gust speed)